Regional Weather Roundup
Issued by NWS

Home | Current Version | Previous Version | Graphics & Text | Print | Product List | Glossary On
Versions: 1 2 3 4 5 6 7 8 9 10 11 12 13 14 15 16 17 18 19 20 21 22 23 24 25 26 27 28 29 30 31 32 33 34 35 36 37 38 39 40 41 42 43 44 45 46 47 48 49 50
000
ASUS43 KOAX 030102
RWRNE
WEATHER ROUNDUP FOR NEBRASKA
NATIONAL WEATHER SERVICE OMAHA NE
800 PM CDT TUE JUN 02 2015

NOTES: SATELLITE DATA IS BEING USED TO AUGMENT CLOUD COVER ABOVE
       12000 FEET.
       "FAIR" INDICATES FEW OR NO CLOUDS BELOW 12,000 FEET WITH NO
       SIGNIFICANT WEATHER AND/OR OBSTRUCTIONS TO VISIBILITY.

  * THESE STATIONS DO NOT REPORT WEATHER SUCH AS RAIN...SNOW OR FOG.

NEZ001>004-019>022-054>056-030200-
NEBRASKA PANHANDLE

CITY           SKY/WX    TMP DP  RH WIND       PRES   REMARKS
SCOTTSBLUFF    MOSUNNY   73  49  42 NE21G35   29.82R
ALLIANCE       CLOUDY    65  51  60 N13       29.84S
CHADRON        CLOUDY    64  54  69 SE7       29.78F
KIMBALL          N/A    N/A N/A N/A MISG        N/A
SIDNEY         SUNNY     79  65  62 SE10      29.82F
$$

NEZ057>060-069>072-079>082-030200-
SOUTHWEST NEBRASKA

CITY           SKY/WX    TMP DP  RH WIND       PRES   REMARKS
NORTH PLATTE   MOSUNNY   80  66  62 SE10      29.78S
IMPERIAL       SUNNY     81  65  58 SE7       29.78R
LEXINGTON      SUNNY     81  66  61 SE12      29.80S
MCCOOK         SUNNY     84  65  52 SE13      29.77R
$$

NEZ005>010-023>029-035>040-094-030200-
NORTH CENTRAL NEBRASKA

CITY           SKY/WX    TMP DP  RH WIND       PRES   REMARKS
VALENTINE      PTSUNNY   81  63  54 S14       29.77S
AINSWORTH      MOSUNNY   77  66  68 SE15G21   29.80S
BROKEN BOW     MOSUNNY   80  66  62 S12       29.82R
ORD            MOCLDY    81  63  54 S12       29.80R
$$

NEZ041-046>049-061>064-073>077-083>087-030200-
SOUTH CENTRAL NEBRASKA

CITY           SKY/WX    TMP DP  RH WIND       PRES   REMARKS
GRAND ISLAND   MOCLDY    81  64  56 S17G24    29.82S
AURORA         PTCLDY    81  64  57 SE20G25   29.82S
HASTINGS       MOCLDY    82  65  56 S13G21    29.82S
KEARNEY *      PTCLDY    81  64  57 S16       29.81S
$$

NEZ011>018-030>034-042>045-030200-
NORTHEAST NEBRASKA

CITY           SKY/WX    TMP DP  RH WIND       PRES   REMARKS
NORFOLK        CLEAR     74  63  68 SE14G21   29.84S
COLUMBUS *     CLEAR     75  63  64 SE13      29.86R
FREMONT        CLEAR     73  60  64 SE18G26   29.88S
TEKAMAH        CLEAR     73  60  63 SE24G30   29.88S
$$

NEZ050>053-065>068-078-088>093-030200-
SOUTHEAST NEBRASKA

CITY           SKY/WX    TMP DP  RH WIND       PRES   REMARKS
LINCOLN        PTCLDY    73  63  70 SE20G26   29.87F
OMAHA EPPLEY   MOCLDY    71  60  68 SE21G28   29.91S
FALLS CITY     MOCLDY    70  60  70 E13       29.92F
NEBRASKA CITY  MOCLDY    66  61  85 SE13      29.93S
PLATTSMOUTH    MOCLDY    67  59  75 SE16G23   29.91S
$$

NEZ044-045-051>053-067-030200-
OMAHA AREA

CITY           SKY/WX    TMP DP  RH WIND       PRES   REMARKS
OMAHA EPPLEY   MOCLDY    71  60  68 SE21G28   29.91S
FREMONT        CLEAR     73  60  64 SE18G26   29.88S
OFFUTT AFB     PTCLDY    70  60  69 SE17G25   29.90S
PLATTSMOUTH    MOCLDY    67  59  75 SE16G23   29.91S
WAHOO          FAIR      71  61  71 SE22G28   29.88S
$$



USA.gov is the U.S. government's official web portal to all federal, state and local government web resources and services.